"Pseudo-MPEC" for P10LfOD
Created 2019 Jan 15 11:18:17 UT using Find_Orb
Click here for an explanation of pseudo-MPECs
Astrometry: P10LfOD C2019 01 09^w!^-Y%ZD
Astrometry;MbmgynvXJN:L+4h#t3RIr)J06)jJ(_wj
F51 P10LfOD C2019 01 09%i=AoU8YOKeSwn#.*aR.ik+3wJWRe1/wS$yb2lBwE?k'OcY],$B@
F51 P10LfOD C2019 01 09@u.MTa5Js'lp2;)9jFM'-QJMaqXp]6j
redacted;3x=g`,kY4^*n
F51 P10LfOD KC2019 01 116KQBOX)F6S^wK%:l?!]xiA(]kN[/rYyCdAsv%sf21m0\L$NkYfCH
H21 P10LfOD KC2019 01 11baId]v:p([MlyKFD*fBSNn_[
clickw\Z8+xu\8kRN3l@+Ek,DPrf
H21 P10LfOD KC2019 01 11HXr(qWZF9rlE6@3\:\,$\Ql?Qa3pcEBEy%=mw/8gOKJCD,)f?SX^
H21 P10LfOD C2019 01 14=PSZ)2Qv/`iwi:!28a;M[n+tSCsK+(i[5#dHT;1n*.]xcI7J?,w!
F51 P10LfOD C2019 01 14Yd*y@YB3Y-[=p;YB
here,^a85mrk!+:4JD7#pA:^TH?q8gwZs5Af
F51 P10LfOD C2019 01 14\in,h_0,V+Gn`o31gKx+LT'8%eqn+^8SE9/fI:3=\PfIVdh;6vB(
F51 P10LfOD C2019 01 14oH8n(Q#nT\qrr!^v1IM9:oB;1uLAZuirjK#m
forsW1/(*(]h$okv
F51 P10LfOD C2019 01 14VWw6R@.Bkej?v!N$_Vb(41M0S2xm+UJR`osIk45]1k2iPB+21`uI
F51 P10LfOD C2019 01 146x/PG\yl!h(8Ss$B#GN62DP-n]ph?MX=\c?b0tP8f)ekCl.Y$Rce
F51 P10LfOD C2019 01 14C@_Z)#Slg'vZmZE8`h*H!bd(!*QK8s
explanationI22)i\bV=^6
F51 Station data: (F51) Pan-STARRS 1, Haleakala (N20.707235 W156.255910) US/Hawaii. Observers N. Primak, A. Schultz, S. Watters, J. Thiel, T. Goggia. Measurer PS1 Science Consortium. 1.8-m Ritchey-Chrétien + CCD. (H21) Astronomical Research Observatory, Westfield (N39.483057 W87.968270) US/Illinois. 0.76-m f/3.0 astrograph + CCD. Orbital elements: P10LfOD Perihelion 2018 Apr 2.058839 +/- 3.33 TT = 1:24:43 (JD 2458210.558839) Epoch 2019 Jan 14.0 TT = JDT 2458497.5 Earth MOID: 0.7528 AutoNEOCP M 111.52738183 +/- 1.4 (J2000 ecliptic) n 0.38867683 +/- 0.00118 Peri. 287.97909 +/- 1.1 a 1.85956035 +/- 0.00376 Node 69.42717 +/- 0.17 e 0.1081401 +/- 0.00221 Incl. 23.08162 +/- 0.09 P 2.54/926.20d H 19.6 G 0.15 U 8.2 q 1.65846726 +/- 0.00122 Q 2.06065344 +/- 0.00819 From 13 observations 2019 Jan. 9-14; mean residual 0".07
Residuals in arcseconds: 190109 F51 .10- .02- 190111 H21 .21- .03- 190114 F51 .05- .02- 190109 F51 .09+ .06+ 190114 F51 .07+ .00 190114 F51 .11- .00 190109 F51 .01+ .04- 190114 F51 .11+ .02+ 190114 F51 .02+ .06- 190111 H21 .16+ .01- 190114 F51 .00 .03- 190111 H21 .05+ .04+ 190114 F51 .03- .10+ Ephemerides (geocentric): Date (UTC) HH RA Dec delta r elong mag " sig PA ---- -- -- -- ------------- ----------- ------ ------ ----- --- ---- --- 2019 01 15 11 09 02 45.366 +52 34 47.23 1.0618 1.9527 145.3 22.1 .307 48 2019 01 15 12 09 02 41.535 +52 35 29.66 1.0618 1.9527 145.3 22.1 .320 48 2019 01 15 13 09 02 37.700 +52 36 12.04 1.0618 1.9528 145.3 22.1 .333 48 2019 01 15 14 09 02 33.860 +52 36 54.36 1.0619 1.9528 145.4 22.1 .346 48 2019 01 15 15 09 02 30.016 +52 37 36.63 1.0619 1.9529 145.4 22.1 .359 48 2019 01 15 16 09 02 26.166 +52 38 18.85 1.0619 1.9529 145.4 22.1 .372 48 2019 01 15 17 09 02 22.312 +52 39 01.01 1.0620 1.9530 145.4 22.1 .386 48 2019 01 15 18 09 02 18.454 +52 39 43.12 1.0620 1.9530 145.4 22.1 .399 48 2019 01 15 19 09 02 14.590 +52 40 25.17 1.0620 1.9531 145.4 22.1 .413 48 2019 01 15 20 09 02 10.722 +52 41 07.17 1.0621 1.9531 145.4 22.1 .427 48 2019 01 15 21 09 02 06.849 +52 41 49.11 1.0621 1.9532 145.4 22.1 .441 48 2019 01 15 22 09 02 02.972 +52 42 31.00 1.0622 1.9532 145.4 22.1 .455 48 2019 01 15 23 09 01 59.090 +52 43 12.84 1.0622 1.9533 145.4 22.1 .469 48 2019 01 16 00 09 01 55.203 +52 43 54.62 1.0622 1.9533 145.4 22.1 .484 48 2019 01 16 01 09 01 51.312 +52 44 36.34 1.0623 1.9533 145.4 22.1 .499 48 2019 01 16 02 09 01 47.416 +52 45 18.01 1.0623 1.9534 145.4 22.1 .513 48 2019 01 16 03 09 01 43.515 +52 45 59.63 1.0623 1.9534 145.4 22.1 .528 48 2019 01 16 04 09 01 39.610 +52 46 41.19 1.0624 1.9535 145.4 22.1 .544 48 2019 01 16 05 09 01 35.701 +52 47 22.69 1.0624 1.9535 145.4 22.1 .559 48 2019 01 16 06 09 01 31.786 +52 48 04.14 1.0625 1.9536 145.4 22.1 .574 48 2019 01 16 07 09 01 27.867 +52 48 45.53 1.0625 1.9536 145.4 22.1 .590 48 2019 01 16 08 09 01 23.944 +52 49 26.87 1.0625 1.9537 145.4 22.1 .606 48 2019 01 16 09 09 01 20.016 +52 50 08.15 1.0626 1.9537 145.4 22.1 .622 48 2019 01 16 10 09 01 16.084 +52 50 49.38 1.0626 1.9538 145.4 22.1 .638 48 2019 01 16 11 09 01 12.147 +52 51 30.55 1.0627 1.9538 145.4 22.1 .654 48 2019 01 16 12 09 01 08.206 +52 52 11.67 1.0627 1.9539 145.4 22.1 .670 48 2019 01 16 13 09 01 04.260 +52 52 52.73 1.0628 1.9539 145.4 22.1 .687 48 2019 01 16 14 09 01 00.309 +52 53 33.73 1.0628 1.9540 145.4 22.1 .703 48 2019 01 16 15 09 00 56.355 +52 54 14.68 1.0628 1.9540 145.4 22.1 .720 48 2019 01 16 16 09 00 52.395 +52 54 55.57 1.0629 1.9541 145.4 22.1 .737 48 2019 01 16 17 09 00 48.432 +52 55 36.41 1.0629 1.9541 145.4 22.1 .754 48 2019 01 16 18 09 00 44.463 +52 56 17.19 1.0630 1.9542 145.4 22.1 .772 47 2019 01 16 19 09 00 40.491 +52 56 57.91 1.0630 1.9542 145.4 22.1 .789 47 2019 01 16 20 09 00 36.514 +52 57 38.58 1.0631 1.9543 145.4 22.1 .807 47 2019 01 16 21 09 00 32.533 +52 58 19.18 1.0631 1.9543 145.4 22.1 .825 47 2019 01 16 22 09 00 28.547 +52 58 59.74 1.0632 1.9543 145.4 22.1 .842 47 2019 01 16 23 09 00 24.557 +52 59 40.23 1.0632 1.9544 145.4 22.1 .860 47 2019 01 17 00 09 00 20.562 +53 00 20.67 1.0633 1.9544 145.4 22.1 .879 47 2019 01 17 01 09 00 16.564 +53 01 01.06 1.0633 1.9545 145.4 22.1 .897 47 2019 01 17 02 09 00 12.560 +53 01 41.38 1.0634 1.9545 145.4 22.1 .916 47 2019 01 17 03 09 00 08.553 +53 02 21.65 1.0634 1.9546 145.4 22.1 .934 47 2019 01 17 04 09 00 04.541 +53 03 01.86 1.0634 1.9546 145.4 22.1 .953 47 2019 01 17 05 09 00 00.525 +53 03 42.02 1.0635 1.9547 145.4 22.1 .972 47 2019 01 17 06 08 59 56.505 +53 04 22.11 1.0635 1.9547 145.4 22.1 0.99 47 2019 01 17 07 08 59 52.480 +53 05 02.15 1.0636 1.9548 145.4 22.1 1.01 47 2019 01 17 08 08 59 48.451 +53 05 42.13 1.0636 1.9548 145.4 22.1 1.03 47 2019 01 17 09 08 59 44.418 +53 06 22.06 1.0637 1.9549 145.4 22.1 1.05 47 2019 01 17 10 08 59 40.381 +53 07 01.93 1.0637 1.9549 145.4 22.1 1.07 47